{"data":{"norad_id":39122,"epoch":"2026-09-20T03:52:17.012064Z","epoch_age_seconds":51185,"freshness":"FRESH","line1":"1 39122U 13012A   26263.16130801 -.00000017  00000+0  00000+0 0  9990","line2":"2 39122   0.0124 256.2087 0002892 278.4174 125.7147  1.00271774 49380","mean_motion":1.00271774,"eccentricity":0.0002892,"inclination_deg":0.0124,"raan_deg":256.2087,"arg_perigee_deg":278.4174,"mean_anomaly_deg":125.7147,"bstar":0,"rev_number":4938,"period_min":1436.0970615719,"perigee_km":35774.404003515,"apogee_km":35798.792086265,"semimajor_km":42164.73504489,"source":"CELESTRAK","updated_at":"2026-09-20T09:00:35.203191Z"}}